Decatur, IL

10:35 PM CDT on May 27, 2017 (GMT -0500)
Decatur

Weather History for KDEC - November, 2012

Change the Weather History Date:

Saturday, November 24, 2012

  Actual Average Record
Temperature  
Mean Temperature 27 °F 39 °F  
Max Temperature 32 °F 47 °F 64 °F (2006)
Min Temperature 21 °F 31 °F 11 °F (2013)
Degree Days  
Heating Degree Days 38 26  
Month to date heating degree days 527 498  
Since 1 July heating degree days 988 916  
Cooling Degree Days 0 0  
Month to date cooling degree days 0 0  
Year to date cooling degree days 1427 1048  
Moisture  
Dew Point 20 °F    
Average Humidity 72    
Maximum Humidity 84    
Minimum Humidity 59    
Precipitation  
Precipitation 0.00 in 0.11 in 1.55 in (2010)
Month to date precipitation 1.15 2.72  
Year to date precipitation 23.85 35.20  
Sea Level Pressure  
Sea Level Pressure 30.24 in    
Wind  
Wind Speed 7 mph (WSW)    
Max Wind Speed 15 mph    
Max Gust Speed 18 mph    
Visibility 8 miles    
Events      
T = Trace of Precipitation, MM = Missing Value Source: NWS Daily Summary

Daily Weather History Graph

Daily Weather History Graph

Search for Another Location

Airport or City:

Trip Planner

Search our weather history database for the weather conditions in past years. The results will help you decide how hot, cold, wet, or windy it might be!

Date:

Astronomy

Nov. 24, 2012 Rise Set
Actual Time 6:50 AM CST 4:33 PM CST
Civil Twilight 6:21 AM CST 5:03 PM CST
Nautical Twilight 5:48 AM CST 5:36 PM CST
Astronomical Twilight 5:15 AM CST 6:08 PM CST
Moon 2:17 PM CST (11/24) 3:07 AM CST (11/24)
Length of Visible Light 10h 41m
Length of Day
9h 42m
Waxing Gibbous, 87% of the Moon is Illuminated
Nov 24
Waxing Gibbous
Nov 28
Full
Dec 6
Last Quarter
Dec 13
New
Dec 19
First Quarter

Hourly Weather History & Observations

Time (CST) Temp. Windchill Dew Point Humidity Pressure Visibility Wind Dir Wind Speed Gust Speed Precip Events Conditions
12:54 AM 24.1 °F 12.5 °F 17.1 °F 75% 30.30 in 10.0 mi NW 12.7 mph - N/A   Clear
1:54 AM 24.1 °F 13.7 °F 17.1 °F 75% 30.30 in 8.0 mi NW 10.4 mph - N/A   Clear
2:54 AM 23.0 °F 13.9 °F 17.1 °F 78% 30.31 in 6.0 mi WNW 8.1 mph - N/A   Haze
3:54 AM 23.0 °F 13.1 °F 17.1 °F 78% 30.30 in 7.0 mi NW 9.2 mph - N/A   Clear
4:54 AM 21.9 °F 12.5 °F 17.1 °F 82% 30.30 in 8.0 mi NW 8.1 mph - N/A   Clear
6:54 AM 21.0 °F 11.4 °F 17.1 °F 85% 30.32 in 7.0 mi NW 8.1 mph - N/A   Scattered Clouds
7:04 AM 21.2 °F 11.7 °F 17.6 °F 86% 30.29 in 6.0 mi NW 8.1 mph - N/A   Mostly Cloudy
7:54 AM 21.9 °F 13.4 °F 18.0 °F 85% 30.33 in 4.0 mi WNW 6.9 mph - N/A   Overcast
8:54 AM 23.0 °F 17.0 °F 18.0 °F 81% 30.35 in 4.0 mi WNW 4.6 mph - N/A   Haze
9:54 AM 24.1 °F 19.7 °F 18.0 °F 77% 30.35 in 5.0 mi Variable 3.5 mph - N/A   Haze
10:54 AM 26.1 °F 19.4 °F 19.0 °F 75% 30.34 in 4.0 mi WNW 5.8 mph - N/A   Haze
11:30 AM 26.6 °F 21.2 °F 19.4 °F 74% 30.29 in 7.0 mi SW 4.6 mph - N/A   Scattered Clouds
11:54 AM 28.0 °F - 19.0 °F 69% 30.31 in 7.0 mi Calm Calm - N/A   Scattered Clouds
12:54 PM 30.9 °F 26.2 °F 19.9 °F 64% 30.27 in 9.0 mi West 4.6 mph - N/A   Clear
1:54 PM 30.9 °F 26.2 °F 19.9 °F 64% 30.25 in 9.0 mi SW 4.6 mph - N/A   Clear
2:54 PM 32.0 °F 27.5 °F 19.9 °F 61% 30.22 in 10.0 mi WSW 4.6 mph - N/A   Clear
3:54 PM 32.0 °F 26.4 °F 19.9 °F 61% 30.22 in 10.0 mi SW 5.8 mph - N/A   Clear
4:54 PM 30.9 °F 25.2 °F 19.9 °F 64% 30.18 in 10.0 mi South 5.8 mph - N/A   Clear
5:54 PM 30.9 °F 24.3 °F 21.0 °F 67% 30.18 in 10.0 mi SSW 6.9 mph - N/A   Clear
6:54 PM 30.0 °F 24.1 °F 21.9 °F 72% 30.16 in 10.0 mi South 5.8 mph - N/A   Clear
7:54 PM 30.9 °F 22.8 °F 21.9 °F 69% 30.14 in 10.0 mi WSW 9.2 mph - N/A   Clear
8:54 PM 30.9 °F 21.7 °F 24.1 °F 76% 30.10 in 10.0 mi South 11.5 mph - N/A   Clear
9:54 PM 30.9 °F 21.7 °F 25.0 °F 79% 30.09 in 10.0 mi South 11.5 mph - N/A   Clear
10:54 PM 30.9 °F 22.2 °F 23.0 °F 72% 30.08 in 10.0 mi South 10.4 mph - N/A   Clear
11:54 PM 30.9 °F 22.2 °F 23.0 °F 72% 30.06 in 10.0 mi South 10.4 mph - N/A   Clear